カタログに戻る

STARLINK-11246

運用中通信VLEO
NORAD 60932·PAYLOAD·🇺🇸 United States

打ち上げ Aug 31, 2024 から Vandenberg Space Force Base

Loading…

次のパス (今後24時間)

TLE

最新Source: CelesTrak SupGP

元期: Sep 14, 2026, 22:58 UTC

1 60932C 24155J   26257.95743056 -.00045721  00000+0 -37662-3 0  2572
2 60932  53.1567 128.0235 0001202  89.9479 206.2469 15.69732157    17

AllMySatでSTARLINK-11246をリアルタイム追跡

Download on the App Store